星链-34756 (STARLINK-34756)

导读

STARLINK-34756是美国SpaceX公司星链星座的一员,于2025年7月19日发射升空。星链项目旨在构建全球低轨卫星互联网系统,为偏远及网络欠发达地区提供高速宽带服务。该卫星采用平板设计,搭载霍尔推进器与自主避撞系统,服役寿命约5-7年,退役后会主动离轨再入大气层焚毁,减少空间碎片影响,是星链全球组网进程中的组成部分。

基本信息
目录编号:
64849
目录名称:
STARLINK-34756
国际标识:
2025-152H
轨道中心:
EARTH
卫星名称:
星链-34756
卫星全名:
星链-34756 (STARLINK-34756)
卫星状态:
在轨 (已飞行329 天)
发射日期:
2025-07-19 UTC
国别 :
美国 (US)
星等 :
--
轨道信息
数据来源 国际轨道数据 AOE轨道数据
星历时间 2026-06-13T21:28:38+0800
8小时前
查看轨道信息
2026-06-09T00:00:00+0800
5天前
查看轨道信息
半长轴 6927.59km 6927.643km
偏心率 0.000184 0.0002472
轨道倾角 97.365° 97.390°
近地点辐角 72.139° 93.292°
升交点赤经 19.151° 14.470°
平近点角 288.004° 31.700°
近地点 548.178km 547.793km
远地点 550.728km 551.219km
周期 95.639分钟 95.640分钟
每日圈数 15.05669 15.056517
详细信息
固有亮度:
5
最大亮度:
2.5
卫星平台:
Starlink V1.0
覆盖范围:
全球
运营商:
太空探索技术公司
运营商所在国:
美国
制造商(研发单位):
太空探索技术公司
制造商所在国:
美国
使用方式:
暂无
卫星简介
Starlink 计划是 SpaceX 推出的全球卫星互联网项目,通过发射低轨道卫星,为全球尤其是偏远地区提供高速、低延迟的互联网服务。自 2019 年起,Starlink 已部署数千颗卫星,旨在缩小全球数字鸿沟,推动互联网普及。该项目还为军事、航空等行业提供通信支持,带来广泛经济效益。
2D轨道图
3D轨道图
轨道高度分析图
轨道倾角分析图
轨道综合分析图
查看轨道综合分析图